SCP
1 1 1 1 0 0 1 0 0 0 0 0 0 0 0 0 0 0 0 0 0 0 0 0 1 1 1 1 1 1 1 1 1 1 1 1 1 1 1 1 1 1 1
1 1 1 1 0 0 0 0 0 0 0 0 0 0 0 0 0 0 0 0 0 0 0 0 0 0 1 1 1 1 1 1 1 1 1 1 1 1 0 1 1 1 1
0 0 0 0 0 0 0 0 0 0 0 0 0 0 0 0 0 0 0 0 0 0 0 0 0 0 0 0 0 0 1 1 1 1 1 0 0 0 0 1 1 1 1
0 0 0 0 0 0 0 0 0 0 0 0 0 0 0 0 0 0 0 0 0 0 0 0 0 0 0 0 0 0 0 0 0 0 0 0 0 0 0 1 1 1 1
0 0 0 0 0 0 0 0 0 0 0 0 0 0 0 0 0 0 0 0 0 0 0 0 0 0 0 0 0 0 0 0 0 0 0 0 0 0 0 1 1 1 1
0 0 0 0 0 0 0 0 0 0 0 0 0 0 0 0 0 0 0 0 0 0 0 0 0 0 0 0 0 0 0 0 0 0 0 0 0 0 0 0 0 0 0
0 0 0 0 0 0 0 0 0 0 0 0 0 0 0 0 0 0 0 0 0 0 0 0 0 0 0 0 0 0 0 0 0 0 0 0 0 0 0 0 0 0 0
0 0 0 0 0 0 0 0 0 0 0 0 0 0 0 0 0 0 0 0 0 0 0 0 0 0 0 0 0 0 0 0 0 0 0 0 0 0 0 0 0 0 0
0 0 0 0 0 0 0 0 0 0 0 0 0 0 0 0 0 0 0 0 0 0 0 0 0 0 0 0 0 0 0 0 0 0 0 0 0 0 0 0 0 0 0
0 0 0 0 0 0 0 0 0 0 0 0 0 0 0 0 0 0 0 0 0 0 0 0 0 0 0 0 0 0 0 0 0 0 0 0 0 0 0 0 0 0 0
0 0 0 0 0 0 0 0 0 0 0 0 0 0 0 0 0 0 0 0 0 0 0 0 0 0 0 0 0 0 0 0 0 0 0 0 0 0 0 0 0 0 0
0 0 0 0 0 0 0 0 0 0 0 0 0 0 0 0 0 0 0 0 0 0 0 0 0 0 0 0 0 0 0 0 0 0 0 0 0 0 0 0 0 0 0
0 0 0 0 0 0 0 0 0 0 0 0 0 0 0 0 0 0 0 0 0 0 0 0 0 0 0 0 0 0 0 0 0 0 0 0 0 0 0 0 0 0 0
0 0 0 0 0 0 0 0 0 0 0 0 0 0 0 0 0 0 0 0 0 0 0 0 0 0 0 0 0 0 0 0 0 0 0 0 0 0 0 0 0 0 0
0 0 0 0 0 0 0 0 0 0 0 0 0 0 0 0 0 0 0 0 0 0 0 0 0 0 0 0 0 0 0 0 0 0 0 0 0 0 0 0 0 0 0
0 0 0 0 0 0 0 0 0 0 0 0 0 0 0 0 0 0 0 0 0 0 0 0 0 0 0 0 0 0 0 0 0 0 0 0 0 0 0 0 0 0 0
0 0 0 0 0 0 0 0 0 0 0 0 0 0 0 0 0 0 0 0 0 0 0 0 0 0 0 0 0 0 0 0 0 0 0 0 0 0 0 0 0 0 0
0 0 0 0 0 0 0 0 0 0 0 0 0 0 0 0 0 0 0 0 0 0 0 0 0 0 0 0 0 0 0 0 0 0 0 0 0 0 0 0 0 0 0
0 0 0 0 0 0 0 0 0 0 0 0 0 0 0 0 0 0 0 0 0 0 0 0 0 0 0 0 0 0 0 0 0 0 0 0 0 0 0 0 0 0 0
0 0 0 0 0 0 0 0 0 0 0 0 0 0 0 0 0 0 0 0 0 0 0 0 0 0 0 0 0 0 0 0 0 0 0 0 0 0 0 0 0 0 0
0 0 0 0 0 0 0 0 0 0 0 0 0 0 0 0 0 0 0 0 0 0 0 0 0 0 0 0 0 0 0 0 0 0 0 0 0 0 0 0 0 0 0
0 0 0 0 0 0 0 0 0 0 0 0 0 0 0 0 0 0 0 0 0 0 0 0 0 0 0 0 0 0 0 0 0 0 0 0 0 0 0 0 0 0 0
0 0 0 0 0 0 0 0 0 0 0 0 0 0 0 0 0 0 0 0 0 0 0 0 0 0 0 0 0 0 0 0 0 0 0 0 0 0 0 0 0 0 0
0 0 0 0 0 0 0 0 0 0 0 0 0 0 0 0 0 0 0 0 0 0 0 0 0 0 0 0 0 0 0 0 0 0 0 0 0 0 0 0 0 0 0
0 0 0 0 0 0 0 0 0 0 0 0 0 0 0 0 0 0 0 0 0 0 0 0 0 0 0 0 0 0 0 0 0 0 0 0 0 0 0 0 0 0 0
0 0 0 0 0 0 0 0 0 0 0 0 0 0 0 0 0 0 0 0 0 0 0 0 0 0 0 0 0 0 0 0 0 0 0 0 0 0 0 0 0 0 0
Wind_Speed
4 5 5 5 5 4 5 4 4 3 3 3 3 3 2 2 2 3 4 3 3 3 3 2 2 2 2 2 1 1 2 2 1 1 2 2 1 1 2 2 2 3 4
4 5 5 4 4 4 4 4 4 3 3 2 2 2 2 2 2 2 3 4 3 2 2 2 2 2 2 3 3 2 1 1 2 1 1 2 2 2 1 1 2 2 2
8 7 6 5 4 4 4 4 3 3 3 3 3 3 3 3 3 3 3 4 3 3 3 2 2 2 2 2 2 2 2 1 2 1 1 1 1 2 2 1 1 1 1
7 7 7 6 6 5 4 4 4 3 3 3 4 4 3 2 1 1 2 3 4 4 3 3 3 2 2 2 1 2 1 1 1 1 1 0 1 1 1 2 1 1 1
9 9 9 8 6 6 5 4 4 3 3 3 4 4 3 2 1 1 3 3 3 4 3 3 2 2 1 1 2 1 1 1 1 0 0 1 1 0 1 1 3 2 1
9 8 7 6 6 5 5 5 4 2 2 3 4 4 4 3 2 2 2 2 2 2 3 3 2 1 1 1 1 1 1 1 1 1 0 1 1 0 1 1 2 2 2
10 9 9 9 8 7 7 5 5 3 2 3 3 3 3 3 3 2 1 1 1 1 2 2 2 1 1 1 0 0 0 0 1 1 1 1 1 1 1 1 1 2 2
9 10 11 10 10 9 8 7 6 4 3 3 3 2 2 2 1 1 1 1 1 1 1 1 1 1 1 1 1 1 1 0 0 1 1 1 2 2 2 2 2 1 2
10 10 10 10 10 10 9 8 7 5 4 4 3 2 2 2 2 1 1 1 1 1 1 1 1 2 2 1 1 0 1 1 1 1 1 2 2 2 2 2 2 2 2
9 9 9 9 9 9 7 7 6 6 4 4 3 3 2 2 2 1 1 1 1 1 1 2 1 2 2 1 1 1 1 1 1 1 2 2 2 2 2 2 3 3 3
11 10 8 8 8 7 7 7 6 5 4 4 3 2 2 2 2 2 2 2 1 1 2 2 2 2 2 2 1 2 2 2 2 2 2 3 3 2 2 2 2 3 3
9 8 8 8 7 7 7 7 6 6 5 4 4 3 2 2 2 2 2 2 2 2 2 2 2 3 2 2 2 2 2 2 3 3 3 4 3 3 3 2 3 4 4
8 7 7 8 8 8 8 7 7 6 5 5 4 3 3 3 3 3 2 2 2 2 2 2 3 3 3 3 3 3 3 3 3 4 4 4 4 4 3 4 4 4 4
9 9 8 8 8 8 8 7 7 6 6 5 5 4 4 4 3 3 3 2 2 3 3 3 3 3 3 3 3 3 3 3 4 4 4 5 5 6 5 5 5 4 4
9 10 10 9 8 7 7 7 7 6 6 6 5 5 4 3 3 3 3 3 3 3 3 3 3 3 3 3 3 3 4 4 5 5 5 5 7 9 7 5 5 5 4
12 11 10 10 10 10 9 8 7 7 6 6 6 5 4 3 3 3 3 3 3 3 2 3 3 4 3 4 5 4 4 4 5 6 6 6 7 8 8 9 9 8 7
12 13 13 12 11 11 10 10 9 7 6 6 5 5 4 4 4 3 3 3 3 3 3 3 4 5 6 7 7 6 4 5 5 6 6 5 5 5 5 7 8 8 10
12 12 11 10 9 8 8 7 7 7 7 6 5 5 5 4 4 3 4 4 3 3 3 4 4 5 7 8 7 6 4 5 6 6 6 7 7 6 5 6 6 7 8
12 11 11 10 9 9 8 8 7 7 7 7 6 6 5 5 4 4 5 3 3 3 4 4 5 6 7 8 7 5 3 4 6 6 6 7 7 8 7 6 7 8 8
7 8 8 7 8 8 9 9 8 7 8 8 7 6 6 6 5 5 4 3 3 4 4 5 5 6 7 8 8 5 2 4 6 6 6 8 8 9 8 6 6 8 8
7 8 9 9 9 9 10 9 8 9 9 7 5 5 5 5 5 4 3 3 3 3 4 5 6 6 7 8 8 6 3 4 5 5 5 5 7 9 9 7 7 10 9
7 9 9 8 7 9 10 9 9 8 6 5 5 5 5 5 4 4 4 3 3 4 5 5 6 5 5 6 7 8 7 6 5 6 5 6 8 10 10 8 9 11 9
8 8 9 8 6 8 10 10 9 6 6 6 5 5 5 4 4 4 4 3 3 3 4 4 5 6 5 5 8 10 9 8 6 6 8 9 11 10 8 9 10 8 5
7 7 9 9 7 7 8 8 6 7 7 6 5 4 4 4 4 3 4 4 4 4 5 5 6 6 5 5 4 4 5 6 6 5 6 8 9 7 7 7 6 5 5
6 7 8 9 8 8 7 6 5 7 6 5 5 4 4 4 4 4 5 6 6 6 6 6 6 6 7 8 8 5 5 4 4 3 3 3 3 4 4 4 4 4 4
6 6 7 7 7 7 7 6 6 7 7 5 5 4 4 4 4 4 5 8 10 11 13 13 10 8 12 12 11 10 11 10 6 3 4 5 5 5 5 5 5 4 4
Wind_Direction
137 131 127 118 116 110 99 91 94 82 82 78 78 76 62 40 39 39 44 45 50 63 73 73 61 61 67 56 59 87 60 28 9 39 354 335 311 275 253 247 233 231 227
149 142 131 128 126 122 111 106 98 86 78 88 96 101 100 73 57 27 31 29 33 45 78 82 74 63 66 54 49 62 75 30 33 84 73 354 345 338 314 270 223 232 225
176 167 157 153 143 138 137 125 107 90 83 91 93 82 62 46 32 21 15 7 21 45 66 78 84 75 79 71 48 59 87 71 24 44 123 136 240 310 324 311 297 262 222
179 174 169 167 165 162 148 131 119 104 95 98 104 108 106 96 48 8 1 8 25 42 60 69 73 76 76 69 38 66 67 100 63 16 28 135 176 194 320 324 326 301 251
183 181 180 175 168 160 150 139 123 106 96 97 107 105 102 106 75 46 39 29 21 28 40 58 63 61 57 58 50 62 69 92 124 104 39 58 45 83 178 301 326 332 312
185 180 173 160 158 154 149 147 135 124 114 113 115 123 127 126 104 75 56 32 16 15 23 42 45 42 38 33 34 66 97 114 132 139 156 152 146 182 171 245 297 305 303
179 176 171 170 169 167 166 160 153 160 157 141 135 142 147 144 139 137 115 81 24 4 355 14 8 2 348 344 16 60 62 154 167 192 209 214 217 198 183 196 254 288 303
181 182 181 178 177 175 172 168 171 178 175 163 161 159 157 152 162 172 175 188 226 268 301 332 337 338 346 8 29 21 324 206 227 243 220 226 236 213 205 195 193 265 293
184 184 179 177 177 177 179 177 176 183 184 177 169 167 171 177 189 196 189 216 252 266 298 318 333 343 351 356 11 345 311 302 272 269 257 247 249 229 223 219 205 206 256
182 182 178 179 178 177 174 171 175 184 181 175 182 179 187 193 194 186 203 227 263 284 307 316 324 330 337 341 335 298 290 282 280 257 256 258 255 246 230 222 219 215 225
184 181 177 174 167 162 165 172 177 177 178 183 187 180 190 189 185 197 221 233 255 273 283 291 299 306 309 316 304 287 284 281 288 285 266 268 263 254 243 226 220 220 217
180 172 166 160 162 169 173 178 180 182 188 184 181 186 186 181 193 220 239 241 257 273 275 280 287 291 290 292 277 285 288 276 281 285 280 276 275 260 251 237 234 231 222
165 160 160 167 174 177 178 181 184 189 187 177 177 182 189 195 213 231 245 247 257 276 284 273 273 281 283 282 272 267 272 267 267 271 271 275 272 265 257 247 245 244 240
168 167 172 178 179 178 179 181 186 186 181 176 179 190 203 209 221 234 245 252 256 267 275 271 270 274 275 272 271 267 265 268 272 271 268 268 261 259 260 255 248 245 245
175 179 181 181 177 177 180 182 184 183 178 177 188 204 210 214 223 237 249 256 260 263 265 273 278 274 268 263 262 262 263 268 279 279 272 268 266 260 253 253 246 239 242
186 185 182 179 182 183 183 182 184 182 173 183 198 205 206 215 225 236 245 254 264 273 274 274 279 283 277 285 277 261 264 267 271 280 285 283 276 274 271 263 256 238 236
187 185 186 187 188 187 181 184 185 174 175 191 200 201 203 216 227 232 235 248 259 264 271 272 271 274 277 282 283 274 260 261 264 267 275 279 278 282 280 278 275 262 248
187 188 186 186 186 180 177 175 166 170 182 194 202 203 204 217 225 225 238 247 248 252 260 266 267 269 276 280 282 284 271 263 265 263 262 265 275 275 273 277 276 270 264
185 184 182 178 172 172 169 160 166 175 185 198 206 207 204 211 217 229 242 243 240 254 255 262 267 268 279 283 281 280 271 274 277 272 265 261 266 272 272 270 272 277 275
175 168 159 151 164 170 159 162 175 182 198 205 208 206 200 205 217 230 239 233 233 251 265 269 264 262 272 279 279 274 254 274 281 282 273 261 261 272 275 263 262 270 274
162 155 154 164 176 164 160 172 180 198 206 201 200 202 203 209 220 228 229 235 246 260 266 271 273 268 266 274 275 264 241 253 271 277 278 272 269 272 274 263 251 254 266
148 153 160 169 164 161 164 176 195 204 192 185 193 203 207 213 213 217 238 239 238 257 269 274 283 275 267 264 267 262 253 245 251 262 269 273 280 280 277 267 254 259 262
157 157 161 159 160 168 171 184 201 183 173 180 196 207 213 216 213 215 235 245 238 245 261 264 273 280 277 267 261 263 265 257 245 256 263 275 283 286 278 265 265 263 250
159 154 152 158 171 178 184 195 185 166 169 187 203 208 215 228 227 223 226 231 237 241 250 256 263 272 277 270 260 257 262 261 255 264 274 281 280 273 268 276 273 254 241
155 155 161 170 179 178 189 194 172 162 176 194 207 214 219 227 237 238 231 229 233 225 229 244 246 256 269 263 244 243 253 249 253 273 278 276 282 287 283 280 275 265 249
152 157 166 173 177 174 187 189 175 171 177 196 211 215 219 226 232 248 266 246 242 250 242 242 243 248 248 263 270 260 255 255 247 235 256 267 269 270 274 279 283 274 262